Weather History for Green Bay, WI

Change the Weather History Date:

Tuesday, August 26, 2014

  Actual Average Record
Temperature  
Mean Temperature 67 °F 66 °F  
Max Temperature 75 °F 77 °F 95 °F (1948)
Min Temperature 59 °F 56 °F 42 °F (1968)
Degree Days  
Heating Degree Days 0 2  
Month to date heating degree days 12 29  
Since 1 June heating degree days 58 144  
Since 1 July heating degree days 27 52  
Cooling Degree Days 2 3  
Month to date cooling degree days 103 96  
Year to date cooling degree days 324 347  
Since 1 June cooling degree days 308 329  
Growing Degree Days 17 (Base 50)    
Moisture  
Dew Point 60 °F    
Average Humidity 79    
Maximum Humidity 100    
Minimum Humidity 57    
Precipitation  
Precipitation 0.00 in 0.10 in 2.65 in (1921)
Month to date precipitation 3.62 2.86  
Year to date precipitation 19.54 19.89  
Snow  
Snow 0.00 in 0.00 in 0.00 in ()
Month to date snowfall 0.0 0.0  
Since 1 June snowfall 0.0 0.0  
Since 1 July snowfall 0.0 0.0  
Snow Depth 0.00 in    
Sea Level Pressure  
Sea Level Pressure 30.07 in    
Wind  
Wind Speed 7 mph (WNW)    
Max Wind Speed 16 mph    
Max Gust Speed 21 mph    
Visibility 10 miles    
Events      
T = Trace of Precipitation, MM = Missing Value Source: NWS Daily Summary

Daily Weather History Graph

Daily Weather History Graph

Search for Another Location

Airport:

Trip Planner

Search our weather history database for the weather conditions in past years. The results will help you decide how hot, cold, wet, or windy it might be!

Date:

Astronomy

Aug. 26, 2014 Rise Set
Actual Time 6:08 AM CDT 7:39 PM CDT
Civil Twilight 5:37 AM CDT 8:09 PM CDT
Nautical Twilight 5:00 AM CDT 8:46 PM CDT
Astronomical Twilight 4:21 AM CDT 9:26 PM CDT
Moon 7:12 AM CDT (8/26) 7:55 PM CDT (8/26)
Length of Visible Light 14h 32m
Length of Day
13h 31m
New Moon, 1% of the Moon is Illuminated
Aug 26
New Moon
Sep 2
First Quarter
Sep 8
Full
Sep 15
Last Quarter
Sep 24
New

Hourly Weather History & Observations

Time (CDT) Temp. Dew Point Humidity Pressure Visibility Wind Dir Wind Speed Gust Speed Precip Events Conditions
12:53 AM 71.1 °F 70.0 °F 96% 29.98 in 7.0 mi SSW 6.9 mph - N/A   Clear
1:53 AM 71.1 °F 70.0 °F 96% 29.99 in 10.0 mi WSW 5.8 mph - N/A   Mostly Cloudy
2:53 AM 70.0 °F 69.1 °F 97% 29.99 in 10.0 mi WNW 6.9 mph - N/A   Clear
3:53 AM 66.2 °F 64.4 °F 94% 30.00 in 10.0 mi WNW 6.9 mph - N/A   Clear
4:53 AM 66.0 °F 62.1 °F 87% 30.02 in 10.0 mi WNW 5.8 mph - N/A   Overcast
5:53 AM 64.9 °F 62.1 °F 90% 30.04 in 10.0 mi WNW 4.6 mph - N/A   Mostly Cloudy
6:53 AM 64.4 °F 60.8 °F 88% 30.07 in 10.0 mi West 4.6 mph - N/A   Scattered Clouds
7:53 AM 66.9 °F 61.0 °F 81% 30.10 in 10.0 mi West 6.9 mph - N/A   Scattered Clouds
8:53 AM 69.1 °F 60.1 °F 73% 30.11 in 10.0 mi West 9.2 mph - N/A   Mostly Cloudy
9:53 AM 69.1 °F 55.0 °F 61% 30.12 in 10.0 mi WNW 12.7 mph - N/A   Clear
10:53 AM 68.0 °F 57.0 °F 68% 30.11 in 10.0 mi WNW 9.2 mph - N/A   Mostly Cloudy
11:53 AM 70.0 °F 57.9 °F 65% 30.10 in 10.0 mi West 4.6 mph - N/A   Clear
12:53 PM 72.0 °F 57.9 °F 61% 30.06 in 10.0 mi NNW 11.5 mph - N/A   Clear
1:53 PM 72.0 °F 57.0 °F 59% 30.09 in 10.0 mi WSW 5.8 mph - N/A   Clear
2:53 PM 73.9 °F 57.9 °F 57% 30.08 in 10.0 mi North - - N/A   Partly Cloudy
3:53 PM 73.4 °F 60.8 °F 65% 30.08 in 10.0 mi SW 6.9 mph - N/A   Partly Cloudy
4:53 PM 73.9 °F 60.1 °F 62% 30.09 in 10.0 mi WSW 5.8 mph - N/A   Partly Cloudy
5:53 PM 73.9 °F 59.0 °F 59% 30.08 in 10.0 mi WNW 9.2 mph - N/A   Clear
6:53 PM 71.1 °F 59.0 °F 66% 30.09 in 10.0 mi NW 6.9 mph - N/A   Clear
7:53 PM 64.0 °F 59.0 °F 84% 30.10 in 10.0 mi WNW 4.6 mph - N/A   Clear
8:53 PM 61.0 °F 57.9 °F 90% 30.10 in 10.0 mi NW 5.8 mph - N/A   Clear
9:53 PM 60.1 °F 57.9 °F 93% 30.12 in 10.0 mi West 3.5 mph - N/A   Clear
10:53 PM 59.0 °F 57.0 °F 93% 30.13 in 10.0 mi NW 4.6 mph - N/A   Clear
11:53 PM 59.0 °F 57.9 °F 96% 30.13 in 10.0 mi West 4.6 mph - N/A   Clear